Regional Weather Roundup
Issued by NWS

Home | Current Version | Previous Version | Text Only | Print | Product List | Glossary On
Versions: 1 2 3 4 5 6 7 8 9 10 11 12 13 14 15 16 17 18 19 20 21 22 23 24 25 26 27 28 29 30 31 32 33 34 35 36 37 38 39 40 41 42 43 44 45 46 47 48 49 50
312
ASUS44 KJAN 161803
RWRMS

MISSISSIPPI HOURLY WEATHER ROUNDUP
NATIONAL WEATHER SERVICE JACKSON MS
100 PM CDT TUE SEP 16 2014

NOTE: "FAIR: INDICATES FEW OR NO CLOUDS BELOW 12,000 FEET WITH NO
SIGNIFICANT WEATHER AND/OR OBSTRUCTIONS TO VISIBILITY.

MSZ001>002-007>008-010>013-018>021-025>028-034>036-161900-
NORTHWEST MISSISSIPPI

CITY           SKY/WX    TMP DP  RH WIND       PRES   REMARKS
CLARKSDALE     FAIR      84  70  61 N3        30.09F
CLEVELAND      FAIR      87  68  52 CALM      30.07F HX  90
GREENWOOD      MOSUNNY   88  64  44 VRB3      30.07F
6HR MIN TEMP:  71; 6HR MAX TEMP:  88; 6HR PCP:  0.01;

GREENVILLE     SUNNY     87  64  46 CALM      30.07
GRENADA        FAIR      86  66  51 N5        30.07F
OLIVE BRANCH   CLOUDY    72  72 100 NE6       30.11F FOG
OXFORD         FAIR      82  66  57 CALM      30.10F
TUNICA         MOCLDY    79  70  73 N7        30.10F
$$

MSZ003>006-009-014>017-022>024-029>033-037>039-161900-
NORTHEAST MISSISSIPPI

CITY           SKY/WX    TMP DP  RH WIND       PRES   REMARKS
COLUMBUS AFB   SUNNY     86  67  51 N6        30.06F
6HR MIN TEMP:  72; 6HR MAX TEMP:  87; 6HR PCP:  0.02;

CORINTH        MOCLDY    81  68  65 NW7       30.08S
GOLDN TRIANGLE SUNNY     88  68  51 NE5       30.07F HX  91
STARKVILLE     FAIR      86  64  48 NW3       30.07F
TUPELO         PTSUNNY   85  65  51 MISG      30.07F
6HR MIN TEMP:  72; 6HR MAX TEMP:  87;

$$

MSZ040-058-161900-
CENTRAL MISSISSIPPI

CITY           SKY/WX    TMP DP  RH WIND       PRES   REMARKS
JACKSON INTL   PTSUNNY   87  65  47 N7        30.08S
6HR MIN TEMP:  73; 6HR MAX TEMP:  87;

JACKSON HAWKNS PTSUNNY   87  68  52 N5        30.08F HX  90
6HR MIN TEMP:  75; 6HR MAX TEMP:  88;

MERIDIAN KEY   PTSUNNY   88  66  48 NE5       30.06F HX  90
6HR MIN TEMP:  72; 6HR MAX TEMP:  89;

MERIDIAN NAS   PTSUNNY   84  69  60 VRB7      30.07F
6HR MIN TEMP:  72; 6HR MAX TEMP:  86;

RAYMOND        FAIR      88  82  84 E6        30.07F HX 108
VICKSBURG      PTSUNNY   88  68  51 N7        30.07F HX  91
6HR MIN TEMP:  71; 6HR MAX TEMP:  88;

$$

MSZ059>079-161900-
SOUTH MISSISSIPPI

CITY           SKY/WX    TMP DP  RH WIND       PRES   REMARKS
BROOKHAVEN     FAIR      86  72  62 N5        30.08F HX  92
HATTIESBURG    PTSUNNY   89  72  56 MISG      30.05F HX  96
6HR MIN TEMP:  72; 6HR MAX TEMP:  90;

MCCOMB         MOSUNNY   90  69  50 NE7       30.05F HX  94
6HR MIN TEMP:  76; 6HR MAX TEMP:  90;

NATCHEZ        MOSUNNY   88  72  58 N7        30.07F HX  94
6HR MIN TEMP:  72; 6HR MAX TEMP:  88;

PINE BELT      PTSUNNY   88  72  58 N10       30.07F HX  94
6HR MIN TEMP:  70; 6HR MAX TEMP:  90;

$$

MSZ080>082-161900-
COASTAL MISSISSIPPI

CITY           SKY/WX    TMP DP  RH WIND       PRES   REMARKS
BAY ST LOUIS   PTSUNNY   88  70  55 VRB5      30.03F HX  92
BILOXI         PTSUNNY   89  75  63 S9        30.03F HX  98
6HR MIN TEMP:  75; 6HR MAX TEMP:  90;

PASCAGOULA     PTSUNNY   88  74  63 VRB3      30.03F HX  96
6HR MIN TEMP:  74; 6HR MAX TEMP:  89;

GULFPORT       PTSUNNY   87  74  64 S8        30.03F THUNDER HX  95
6HR MIN TEMP:  74; 6HR MAX TEMP:  90;

$$



USA.gov is the U.S. government's official web portal to all federal, state and local government web resources and services.